When you browse on this site, cookies collect data to enhance your experience and personalize the content and advertising you see.
Visit our Privacy Policy to learn more. By continuing to use the site, you agree to this use of cookies and data.
  • En España
  • Lista de países
  • Para 7 días
  • Temperatura del agua
  • Mapa Satelital
  • El tiempo en el mapa
  • Informadores
  • user-avatar
    Iniciar sesión

    Tiempo cada hora Gonchary

    Hoy, 20 Julio, Sábado

    Tiempo Temperatura Precipitaciones Viento Presión Humedad
    00:00 +14°C° 0 mm 4 mps 740 mmHg 80%
    01:00 +14°C° 0 mm 4 mps 740 mmHg 82%
    02:00 +13°C° 0 mm 4 mps 740 mmHg 84%
    03:00 +13°C° 0 mm 4 mps 741 mmHg 86%
    04:00 +12°C° 0 mm 4 mps 741 mmHg 88%
    05:00 +12°C° 0 mm 4 mps 741 mmHg 90%
    06:00 +14°C° 0 mm 4 mps 741 mmHg 85%
    07:00 +15°C° 0 mm 4 mps 742 mmHg 81%
    08:00 +18°C° 0 mm 4 mps 742 mmHg 76%
    09:00 +19°C° 0 mm 4 mps 742 mmHg 73%
    10:00 +19°C° 0 mm 4 mps 742 mmHg 71%
    11:00 +20°C° 0 mm 4 mps 743 mmHg 69%
    12:00 +21°C° 0 mm 4 mps 743 mmHg 66%
    13:00 +22°C° 0 mm 4 mps 743 mmHg 64%
    14:00 +23°C° 0 mm 4 mps 743 mmHg 63%
    15:00 +22°C° 0 mm 4 mps 743 mmHg 65%
    16:00 +22°C° 0 mm 4 mps 743 mmHg 66%
    17:00 +22°C° 0 mm 4 mps 743 mmHg 67%
    18:00 +20°C° 0 mm 3 mps 743 mmHg 71%
    19:00 +18°C° 0 mm 3 mps 743 mmHg 75%
    20:00 +16°C° 0 mm 3 mps 743 mmHg 78%
    21:00 +15°C° 0 mm 2 mps 743 mmHg 79%
    22:00 +15°C° 0 mm 2 mps 743 mmHg 79%
    23:00 +14°C° 0 mm 2 mps 744 mmHg 80%

    Mañana, 21 Julio, Domingo

    Tiempo Temperatura Precipitaciones Viento Presión Humedad
    00:00 +13°C° 0 mm 2 mps 744 mmHg 82%
    01:00 +13°C° 0 mm 2 mps 744 mmHg 84%
    02:00 +12°C° 0 mm 2 mps 744 mmHg 86%
    03:00 +13°C° 0 mm 2 mps 744 mmHg 87%
    04:00 +13°C° 0 mm 2 mps 744 mmHg 89%
    05:00 +13°C° 0 mm 1 mps 744 mmHg 90%
    06:00 +15°C° 0 mm 2 mps 745 mmHg 85%
    07:00 +17°C° 0 mm 2 mps 745 mmHg 80%
    08:00 +19°C° 0 mm 2 mps 745 mmHg 76%
    09:00 +20°C° 0 mm 2 mps 745 mmHg 71%
    10:00 +21°C° 0 mm 2 mps 745 mmHg 66%
    11:00 +24°C° 0 mm 2 mps 745 mmHg 61%
    12:00 +24°C° 0 mm 2 mps 745 mmHg 61%
    13:00 +25°C° 0 mm 3 mps 745 mmHg 60%
    14:00 +25°C° 0 mm 3 mps 745 mmHg 59%
    15:00 +25°C° 0 mm 3 mps 745 mmHg 62%
    16:00 +24°C° 0 mm 3 mps 744 mmHg 65%
    17:00 +24°C° 0 mm 2 mps 744 mmHg 68%
    18:00 +21°C° 0 mm 2 mps 744 mmHg 74%
    19:00 +21°C° 0 mm 1 mps 744 mmHg 80%
    20:00 +17°C° 0 mm 0 mps 744 mmHg 86%
    21:00 +16°C° 0 mm 0 mps 744 mmHg 86%
    22:00 +15°C° 0 mm 0 mps 744 mmHg 87%
    23:00 +15°C° 0 mm 0 mps 744 mmHg 87%

    Pasado mañana, 22 Julio, Lunes

    Tiempo Temperatura Precipitaciones Viento Presión Humedad
    00:00 +14°C° 0 mm 0 mps 744 mmHg 88%
    01:00 +14°C° 0 mm 0 mps 744 mmHg 88%
    02:00 +15°C° 0 mm 1 mps 744 mmHg 88%
    03:00 +15°C° 0 mm 1 mps 744 mmHg 88%
    04:00 +15°C° 0 mm 1 mps 744 mmHg 88%
    05:00 +15°C° 0 mm 1 mps 744 mmHg 88%
    06:00 +18°C° 0 mm 1 mps 743 mmHg 84%
    07:00 +19°C° 0 mm 2 mps 743 mmHg 81%
    08:00 +20°C° 0 mm 2 mps 743 mmHg 77%
    09:00 +21°C° 0.3 mm 2 mps 743 mmHg 75%
    10:00 +23°C° 0.3 mm 2 mps 743 mmHg 72%
    11:00 +24°C° 0.3 mm 2 mps 743 mmHg 70%
    12:00 +23°C° 1.1 mm 2 mps 742 mmHg 77%
    13:00 +20°C° 1.1 mm 2 mps 742 mmHg 84%
    14:00 +19°C° 1.1 mm 2 mps 741 mmHg 91%
    15:00 +18°C° 0.5 mm 2 mps 741 mmHg 92%
    16:00 +18°C° 0.5 mm 2 mps 741 mmHg 93%
    17:00 +18°C° 0.5 mm 2 mps 741 mmHg 95%
    18:00 +17°C° 0 mm 2 mps 741 mmHg 95%
    19:00 +17°C° 0 mm 2 mps 741 mmHg 95%
    20:00 +16°C° 0 mm 2 mps 741 mmHg 96%
    21:00 +16°C° 0 mm 2 mps 741 mmHg 96%
    22:00 +15°C° 0 mm 2 mps 741 mmHg 97%
    23:00 +15°C° 0 mm 2 mps 741 mmHg 97%

    23 Julio, Martes

    Tiempo Temperatura Precipitaciones Viento Presión Humedad
    00:00 +15°C° 0 mm 2 mps 740 mmHg 97%
    01:00 +15°C° 0 mm 1 mps 740 mmHg 97%
    02:00 +15°C° 0 mm 1 mps 740 mmHg 98%
    03:00 +16°C° 0.1 mm 1 mps 740 mmHg 98%
    04:00 +16°C° 0.1 mm 1 mps 740 mmHg 98%
    05:00 +16°C° 0.1 mm 1 mps 740 mmHg 98%
    06:00 +16°C° 0.2 mm 1 mps 740 mmHg 97%
    07:00 +16°C° 0.2 mm 2 mps 740 mmHg 97%
    08:00 +17°C° 0.2 mm 2 mps 740 mmHg 96%
    09:00 +17°C° 0.1 mm 2 mps 740 mmHg 95%
    10:00 +17°C° 0.1 mm 2 mps 740 mmHg 93%
    11:00 +18°C° 0.1 mm 3 mps 740 mmHg 92%
    12:00 +18°C° 0.1 mm 3 mps 740 mmHg 92%
    13:00 +17°C° 0.1 mm 3 mps 740 mmHg 91%
    14:00 +17°C° 0.1 mm 4 mps 740 mmHg 91%
    15:00 +17°C° 0.1 mm 4 mps 740 mmHg 92%
    16:00 +17°C° 0.1 mm 4 mps 740 mmHg 93%
    17:00 +17°C° 0.1 mm 4 mps 741 mmHg 94%
    18:00 +15°C° 0 mm 4 mps 741 mmHg 94%
    19:00 +16°C° 0 mm 3 mps 741 mmHg 94%
    20:00 +16°C° 0 mm 3 mps 741 mmHg 94%
    21:00 +16°C° 0 mm 3 mps 741 mmHg 94%
    22:00 +16°C° 0 mm 3 mps 741 mmHg 94%
    23:00 +14°C° 0 mm 3 mps 741 mmHg 95%

    24 Julio, Miércoles

    Tiempo Temperatura Precipitaciones Viento Presión Humedad
    00:00 +14°C° 0 mm 3 mps 741 mmHg 94%
    01:00 +14°C° 0 mm 3 mps 742 mmHg 94%
    02:00 +14°C° 0 mm 3 mps 742 mmHg 93%
    03:00 +14°C° 0 mm 3 mps 742 mmHg 93%
    04:00 +14°C° 0 mm 3 mps 742 mmHg 94%
    05:00 +13°C° 0 mm 3 mps 742 mmHg 94%
    06:00 +16°C° 0 mm 3 mps 742 mmHg 88%
    07:00 +18°C° 0 mm 3 mps 742 mmHg 82%
    08:00 +20°C° 0 mm 3 mps 742 mmHg 77%
    09:00 +21°C° 0 mm 3 mps 743 mmHg 71%
    10:00 +22°C° 0 mm 3 mps 743 mmHg 65%
    11:00 +25°C° 0 mm 4 mps 743 mmHg 58%
    12:00 +25°C° 0 mm 4 mps 743 mmHg 57%
    13:00 +26°C° 0 mm 4 mps 743 mmHg 56%
    14:00 +26°C° 0 mm 4 mps 744 mmHg 55%
    15:00 +26°C° 0 mm 3 mps 744 mmHg 59%
    16:00 +25°C° 0 mm 3 mps 744 mmHg 63%
    17:00 +25°C° 0 mm 3 mps 744 mmHg 67%
    18:00 +23°C° 0 mm 2 mps 744 mmHg 72%
    19:00 +20°C° 0 mm 2 mps 743 mmHg 78%
    20:00 +18°C° 0 mm 2 mps 743 mmHg 83%
    21:00 +17°C° 0 mm 2 mps 744 mmHg 84%
    22:00 +17°C° 0 mm 2 mps 744 mmHg 85%
    23:00 +16°C° 0 mm 2 mps 744 mmHg 87%

    25 Julio, Jueves

    Tiempo Temperatura Precipitaciones Viento Presión Humedad
    00:00 +15°C° 0 mm 2 mps 744 mmHg 88%
    01:00 +15°C° 0 mm 2 mps 744 mmHg 90%
    02:00 +14°C° 0 mm 2 mps 744 mmHg 91%
    03:00 +14°C° 0 mm 2 mps 744 mmHg 91%
    04:00 +14°C° 0 mm 2 mps 744 mmHg 91%
    05:00 +14°C° 0 mm 2 mps 744 mmHg 91%
    06:00 +16°C° 0 mm 2 mps 745 mmHg 86%
    07:00 +18°C° 0 mm 2 mps 745 mmHg 81%
    08:00 +20°C° 0 mm 3 mps 745 mmHg 76%
    09:00 +21°C° 0 mm 3 mps 745 mmHg 69%
    10:00 +24°C° 0 mm 3 mps 745 mmHg 63%
    11:00 +25°C° 0 mm 3 mps 745 mmHg 57%
    12:00 +26°C° 0 mm 3 mps 745 mmHg 55%
    13:00 +26°C° 0 mm 3 mps 745 mmHg 53%
    14:00 +27°C° 0 mm 3 mps 745 mmHg 52%
    15:00 +27°C° 0 mm 3 mps 745 mmHg 56%
    16:00 +27°C° 0 mm 2 mps 745 mmHg 60%
    17:00 +27°C° 0 mm 2 mps 744 mmHg 64%
    18:00 +25°C° 0 mm 2 mps 744 mmHg 69%
    19:00 +23°C° 0 mm 2 mps 744 mmHg 74%
    20:00 +20°C° 0 mm 2 mps 744 mmHg 79%
    21:00 +19°C° 0 mm 2 mps 744 mmHg 83%
    22:00 +18°C° 0 mm 2 mps 744 mmHg 87%
    23:00 +17°C° 0 mm 2 mps 745 mmHg 91%
    Mostrar más